When you browse on this site, cookies collect data to enhance your experience and personalize the content and advertising you see.
Visit our Privacy Policy to learn more. By continuing to use the site, you agree to this use of cookies and data.
  • In Schweiz
  • Länderverzeichnis
  • Für 7 Tage
  • Wassertemperatur
  • Satellitenkarten
  • Wetterkarte
  • Widgets
  • user-avatar
    Anmelden

    Stündliche Wetter Ayia Napa

    Heute, 25 April, Donnerstag

    Zeit Temperatur Niederschläge Wind Luftdruck Luftfeuchtigkeit
    00:00 +18°C° 0 mm 1 m/S 765 mmHg 57%
    01:00 +18°C° 0 mm 1 m/S 765 mmHg 56%
    02:00 +18°C° 0 mm 1 m/S 764 mmHg 56%
    03:00 +18°C° 0 mm 1 m/S 764 mmHg 56%
    04:00 +16°C° 0 mm 1 m/S 764 mmHg 55%
    05:00 +16°C° 0 mm 1 m/S 764 mmHg 55%
    06:00 +19°C° 0 mm 1 m/S 764 mmHg 52%
    07:00 +20°C° 0 mm 1 m/S 764 mmHg 48%
    08:00 +22°C° 0 mm 1 m/S 764 mmHg 44%
    09:00 +23°C° 0 mm 1 m/S 764 mmHg 42%
    10:00 +24°C° 0 mm 1 m/S 764 mmHg 40%
    11:00 +25°C° 0 mm 1 m/S 764 mmHg 39%
    12:00 +26°C° 0 mm 2 m/S 764 mmHg 39%
    13:00 +26°C° 0 mm 2 m/S 763 mmHg 40%
    14:00 +26°C° 0 mm 3 m/S 763 mmHg 41%
    15:00 +26°C° 0 mm 3 m/S 763 mmHg 43%
    16:00 +25°C° 0 mm 3 m/S 762 mmHg 45%
    17:00 +24°C° 0 mm 3 m/S 762 mmHg 47%
    18:00 +23°C° 0 mm 2 m/S 762 mmHg 52%
    19:00 +22°C° 0 mm 1 m/S 762 mmHg 56%
    20:00 +21°C° 0 mm 1 m/S 762 mmHg 60%
    21:00 +21°C° 0 mm 1 m/S 762 mmHg 61%
    22:00 +21°C° 0 mm 1 m/S 762 mmHg 61%
    23:00 +20°C° 0 mm 1 m/S 762 mmHg 61%

    Morgen, 26 April, Freitag

    Zeit Temperatur Niederschläge Wind Luftdruck Luftfeuchtigkeit
    00:00 +20°C° 0 mm 1 m/S 762 mmHg 60%
    01:00 +20°C° 0 mm 1 m/S 762 mmHg 59%
    02:00 +19°C° 0 mm 1 m/S 761 mmHg 58%
    03:00 +19°C° 0 mm 1 m/S 761 mmHg 58%
    04:00 +18°C° 0 mm 2 m/S 761 mmHg 58%
    05:00 +18°C° 0 mm 2 m/S 761 mmHg 58%
    06:00 +19°C° 0 mm 2 m/S 761 mmHg 54%
    07:00 +21°C° 0 mm 2 m/S 761 mmHg 50%
    08:00 +23°C° 0 mm 2 m/S 761 mmHg 47%
    09:00 +24°C° 0 mm 2 m/S 761 mmHg 45%
    10:00 +25°C° 0 mm 2 m/S 761 mmHg 42%
    11:00 +26°C° 0 mm 2 m/S 761 mmHg 40%
    12:00 +26°C° 0 mm 3 m/S 760 mmHg 39%
    13:00 +27°C° 0 mm 3 m/S 760 mmHg 38%
    14:00 +27°C° 0 mm 3 m/S 760 mmHg 36%
    15:00 +26°C° 0 mm 3 m/S 759 mmHg 38%
    16:00 +26°C° 0 mm 3 m/S 759 mmHg 40%
    17:00 +25°C° 0 mm 3 m/S 759 mmHg 41%
    18:00 +25°C° 0 mm 2 m/S 759 mmHg 46%
    19:00 +24°C° 0 mm 1 m/S 759 mmHg 51%
    20:00 +23°C° 0 mm 1 m/S 759 mmHg 56%
    21:00 +23°C° 0 mm 1 m/S 759 mmHg 55%
    22:00 +22°C° 0 mm 1 m/S 759 mmHg 55%
    23:00 +22°C° 0 mm 1 m/S 759 mmHg 55%

    übermorgen, 27 April, Samstag

    Zeit Temperatur Niederschläge Wind Luftdruck Luftfeuchtigkeit
    00:00 +21°C° 0 mm 2 m/S 759 mmHg 55%
    01:00 +20°C° 0 mm 2 m/S 759 mmHg 56%
    02:00 +20°C° 0 mm 2 m/S 758 mmHg 56%
    03:00 +20°C° 0 mm 2 m/S 758 mmHg 57%
    04:00 +20°C° 0 mm 3 m/S 758 mmHg 58%
    05:00 +20°C° 0 mm 3 m/S 758 mmHg 59%
    06:00 +20°C° 0 mm 3 m/S 758 mmHg 57%
    07:00 +21°C° 0 mm 4 m/S 758 mmHg 55%
    08:00 +22°C° 0 mm 4 m/S 759 mmHg 53%
    09:00 +23°C° 0 mm 5 m/S 759 mmHg 51%
    10:00 +25°C° 0 mm 5 m/S 759 mmHg 49%
    11:00 +25°C° 0 mm 5 m/S 759 mmHg 47%
    12:00 +26°C° 0 mm 5 m/S 759 mmHg 46%
    13:00 +26°C° 0 mm 5 m/S 759 mmHg 45%
    14:00 +26°C° 0 mm 5 m/S 758 mmHg 44%
    15:00 +26°C° 0 mm 5 m/S 758 mmHg 45%
    16:00 +25°C° 0 mm 4 m/S 758 mmHg 45%
    17:00 +25°C° 0 mm 4 m/S 758 mmHg 46%
    18:00 +23°C° 0 mm 4 m/S 758 mmHg 50%
    19:00 +22°C° 0 mm 3 m/S 758 mmHg 53%
    20:00 +21°C° 0 mm 3 m/S 759 mmHg 57%
    21:00 +21°C° 0 mm 2 m/S 759 mmHg 58%
    22:00 +20°C° 0 mm 2 m/S 759 mmHg 59%
    23:00 +20°C° 0 mm 2 m/S 759 mmHg 60%

    28 April, Sonntag

    Zeit Temperatur Niederschläge Wind Luftdruck Luftfeuchtigkeit
    00:00 +20°C° 0 mm 2 m/S 759 mmHg 60%
    01:00 +19°C° 0 mm 2 m/S 758 mmHg 60%
    02:00 +19°C° 0 mm 3 m/S 758 mmHg 60%
    03:00 +19°C° 0 mm 3 m/S 758 mmHg 61%
    04:00 +19°C° 0 mm 3 m/S 758 mmHg 61%
    05:00 +18°C° 0 mm 3 m/S 758 mmHg 62%
    06:00 +20°C° 0 mm 3 m/S 758 mmHg 56%
    07:00 +21°C° 0 mm 3 m/S 758 mmHg 50%
    08:00 +24°C° 0 mm 3 m/S 758 mmHg 45%
    09:00 +25°C° 0 mm 3 m/S 759 mmHg 42%
    10:00 +26°C° 0 mm 2 m/S 759 mmHg 39%
    11:00 +27°C° 0 mm 2 m/S 759 mmHg 36%
    12:00 +27°C° 0 mm 3 m/S 759 mmHg 37%
    13:00 +27°C° 0 mm 3 m/S 758 mmHg 38%
    14:00 +27°C° 0 mm 3 m/S 758 mmHg 38%
    15:00 +27°C° 0 mm 3 m/S 758 mmHg 40%
    16:00 +26°C° 0 mm 3 m/S 758 mmHg 42%
    17:00 +26°C° 0 mm 3 m/S 758 mmHg 44%
    18:00 +25°C° 0 mm 3 m/S 758 mmHg 47%
    19:00 +24°C° 0 mm 2 m/S 758 mmHg 50%
    20:00 +23°C° 0 mm 2 m/S 758 mmHg 54%
    21:00 +23°C° 0 mm 1 m/S 758 mmHg 55%
    22:00 +22°C° 0 mm 1 m/S 758 mmHg 57%
    23:00 +20°C° 0 mm 0 m/S 758 mmHg 59%

    29 April, Montag

    Zeit Temperatur Niederschläge Wind Luftdruck Luftfeuchtigkeit
    00:00 +19°C° 0 mm 0 m/S 758 mmHg 59%
    01:00 +19°C° 0 mm 0 m/S 758 mmHg 60%
    02:00 +21°C° 0 mm 1 m/S 757 mmHg 60%
    03:00 +18°C° 0 mm 0 m/S 757 mmHg 62%
    04:00 +18°C° 0 mm 0 m/S 758 mmHg 63%
    05:00 +17°C° 0 mm 0 m/S 758 mmHg 65%
    06:00 +19°C° 0 mm 0 m/S 758 mmHg 59%
    07:00 +22°C° 0 mm 1 m/S 758 mmHg 53%
    08:00 +24°C° 0 mm 1 m/S 758 mmHg 47%
    09:00 +25°C° 0 mm 2 m/S 758 mmHg 44%
    10:00 +26°C° 0 mm 2 m/S 758 mmHg 41%
    11:00 +27°C° 0 mm 3 m/S 758 mmHg 39%
    12:00 +27°C° 0 mm 3 m/S 758 mmHg 38%
    13:00 +27°C° 0 mm 4 m/S 757 mmHg 37%
    14:00 +27°C° 0 mm 4 m/S 757 mmHg 37%
    15:00 +26°C° 0 mm 4 m/S 757 mmHg 38%
    16:00 +26°C° 0 mm 4 m/S 757 mmHg 39%
    17:00 +25°C° 0 mm 4 m/S 757 mmHg 41%
    18:00 +23°C° 0 mm 4 m/S 757 mmHg 44%
    19:00 +22°C° 0 mm 3 m/S 757 mmHg 48%
    20:00 +21°C° 0 mm 3 m/S 757 mmHg 51%
    21:00 +21°C° 0 mm 3 m/S 757 mmHg 54%
    22:00 +20°C° 0 mm 3 m/S 757 mmHg 57%
    23:00 +20°C° 0 mm 2 m/S 757 mmHg 59%

    30 April, Dienstag

    Zeit Temperatur Niederschläge Wind Luftdruck Luftfeuchtigkeit
    00:00 +19°C° 0 mm 2 m/S 757 mmHg 63%
    01:00 +19°C° 0 mm 2 m/S 757 mmHg 66%
    02:00 +18°C° 0 mm 2 m/S 756 mmHg 69%
    03:00 +18°C° 0 mm 2 m/S 757 mmHg 71%
    04:00 +17°C° 0 mm 2 m/S 757 mmHg 74%
    05:00 +17°C° 0 mm 2 m/S 757 mmHg 76%
    06:00 +18°C° 0 mm 2 m/S 757 mmHg 71%
    07:00 +20°C° 0 mm 2 m/S 758 mmHg 66%
    08:00 +21°C° 0 mm 2 m/S 758 mmHg 60%
    09:00 +22°C° 0 mm 3 m/S 758 mmHg 57%
    10:00 +24°C° 0 mm 3 m/S 758 mmHg 53%
    11:00 +25°C° 0 mm 4 m/S 758 mmHg 49%
    12:00 +25°C° 0 mm 4 m/S 757 mmHg 51%
    13:00 +23°C° 0 mm 5 m/S 757 mmHg 53%
    14:00 +23°C° 0 mm 6 m/S 757 mmHg 56%
    15:00 +23°C° 0 mm 5 m/S 757 mmHg 58%
    16:00 +23°C° 0 mm 5 m/S 757 mmHg 60%
    17:00 +22°C° 0 mm 5 m/S 757 mmHg 61%
    18:00 +21°C° 0 mm 5 m/S 757 mmHg 66%
    19:00 +21°C° 0 mm 4 m/S 757 mmHg 71%
    20:00 +20°C° 0 mm 4 m/S 757 mmHg 75%
    21:00 +20°C° 0 mm 3 m/S 757 mmHg 75%
    22:00 +20°C° 0 mm 3 m/S 757 mmHg 75%
    23:00 +19°C° 0 mm 2 m/S 757 mmHg 75%
    Mehr zeigen